Time,TemperatureF,DewpointF,PressureIn,WindDirection,WindDirectionDegrees,WindSpeedMPH,WindSpeedGustMPH,Humidity,HourlyPrecipIn,Conditions,Clouds,dailyrainin,SolarRadiationWatts/m^2,SoftwareType,DateUTC
2013-08-08 00:00:00,78.0,75.2,29.93,NNE,18,0.0,0.0,91,0.00,SCT,,0.00,0.0,WeatherDisplay:10.37,2013-08-08 04:00:00,
2013-08-08 00:01:00,78.0,75.2,29.93,NNE,18,0.0,0.0,91,0.00,SCT,,0.00,0.0,WeatherDisplay:10.37,2013-08-08 04:01:00,
2013-08-08 00:06:00,78.1,75.6,29.93,NNE,17,0.0,0.0,92,0.00,SCT,,0.00,0.0,WeatherDisplay:10.37,2013-08-08 04:06:00,
2013-08-08 00:11:00,78.0,75.5,29.93,NNE,17,0.0,0.0,92,0.00,SCT,,0.00,0.0,WeatherDisplay:10.37,2013-08-08 04:11:00,
2013-08-08 00:16:00,77.8,75.3,29.93,NNE,17,0.0,0.0,92,0.00,SCT,,0.00,0.0,WeatherDisplay:10.37,2013-08-08 04:16:00,
2013-08-08 00:21:00,77.7,75.2,29.93,NNE,17,0.0,0.0,92,0.00,SCT,,0.00,0.0,WeatherDisplay:10.37,2013-08-08 04:21:00,
2013-08-08 00:26:00,77.6,75.1,29.93,NNE,18,0.0,0.0,92,0.00,SCT,,0.00,0.0,WeatherDisplay:10.37,2013-08-08 04:26:00,
2013-08-08 00:31:00,77.6,75.1,29.93,NNE,17,0.0,0.0,92,0.00,SCT,,0.00,0.0,WeatherDisplay:10.37,2013-08-08 04:31:00,
2013-08-08 00:36:00,77.5,75.0,29.93,NNE,17,0.0,0.0,92,0.00,SCT,,0.00,0.0,WeatherDisplay:10.37,2013-08-08 04:36:00,
2013-08-08 00:41:00,77.3,75.1,29.93,NNE,18,0.0,0.0,93,0.00,SCT,,0.00,0.0,WeatherDisplay:10.37,2013-08-08 04:41:00,
2013-08-08 00:46:00,77.5,75.3,29.93,NNE,19,0.0,0.0,93,0.00,SCT,,0.00,0.0,WeatherDisplay:10.37,2013-08-08 04:46:00,
2013-08-08 00:51:00,77.5,75.3,29.93,NNE,18,0.0,0.0,93,0.00,SCT,,0.00,0.0,WeatherDisplay:10.37,2013-08-08 04:51:00,
2013-08-08 00:56:00,77.4,75.2,29.93,NNE,17,0.0,0.0,93,0.00,SCT,,0.00,0.0,WeatherDisplay:10.37,2013-08-08 04:56:00,
2013-08-08 01:01:00,77.2,75.0,29.93,NNE,18,0.0,0.0,93,0.00,SCT,,0.00,0.0,WeatherDisplay:10.37,2013-08-08 05:01:00,
2013-08-08 01:06:00,77.2,75.0,29.93,NNE,18,0.0,0.0,93,0.00,SCT,,0.00,0.0,WeatherDisplay:10.37,2013-08-08 05:06:00,
2013-08-08 01:11:00,77.2,75.0,29.93,NNE,17,0.0,0.0,93,0.00,SCT,,0.00,0.0,WeatherDisplay:10.37,2013-08-08 05:11:00,
2013-08-08 01:16:00,77.1,74.9,29.92,NNE,19,0.0,0.0,93,0.00,SCT,,0.00,0.0,WeatherDisplay:10.37,2013-08-08 05:16:00,
2013-08-08 01:21:00,77.0,74.8,29.92,NNE,18,0.0,0.0,93,0.00,SCT,,0.00,0.0,WeatherDisplay:10.37,2013-08-08 05:21:00,
2013-08-08 01:26:00,77.0,74.8,29.92,NNE,18,0.0,0.0,93,0.00,SCT,,0.00,0.0,WeatherDisplay:10.37,2013-08-08 05:26:00,
2013-08-08 01:31:00,77.0,74.8,29.93,NNE,18,0.0,0.0,93,0.00,SCT,,0.00,0.0,WeatherDisplay:10.37,2013-08-08 05:31:00,
2013-08-08 01:36:00,77.0,74.8,29.93,NNE,18,0.0,0.0,93,0.00,SCT,,0.00,0.0,WeatherDisplay:10.37,2013-08-08 05:36:00,
2013-08-08 01:41:00,76.9,74.7,29.93,NNE,18,0.0,0.0,93,0.00,SCT,,0.00,0.0,WeatherDisplay:10.37,2013-08-08 05:41:00,
2013-08-08 01:46:00,76.9,75.0,29.92,NNE,18,0.0,0.0,94,0.00,SCT,,0.00,0.0,WeatherDisplay:10.37,2013-08-08 05:46:00,
2013-08-08 01:51:00,76.9,75.0,29.92,NNE,18,0.0,0.0,94,0.00,SCT,,0.00,0.0,WeatherDisplay:10.37,2013-08-08 05:51:00,
2013-08-08 01:56:00,77.0,75.1,29.92,NNE,18,0.0,0.0,94,0.00,SCT,,0.00,0.0,WeatherDisplay:10.37,2013-08-08 05:56:00,
2013-08-08 02:01:00,76.9,75.0,29.92,NNE,18,0.0,0.0,94,0.00,SCT,,0.00,0.0,WeatherDisplay:10.37,2013-08-08 06:01:00,
2013-08-08 02:06:00,76.7,74.8,29.92,NNE,19,0.0,0.0,94,0.00,SCT,,0.00,0.0,WeatherDisplay:10.37,2013-08-08 06:06:00,
2013-08-08 02:11:00,76.6,74.7,29.92,NNE,19,0.0,0.0,94,0.00,SCT,,0.00,0.0,WeatherDisplay:10.37,2013-08-08 06:11:00,
2013-08-08 02:16:00,76.6,74.7,29.92,NNE,19,0.0,0.0,94,0.00,SCT,,0.00,0.0,WeatherDisplay:10.37,2013-08-08 06:16:00,
2013-08-08 02:22:00,76.7,74.8,29.92,NNE,18,0.0,0.0,94,0.00,SCT,,0.00,0.0,WeatherDisplay:10.37,2013-08-08 06:22:00,
2013-08-08 02:27:00,76.6,74.7,29.92,NNE,18,0.0,0.0,94,0.00,SCT,,0.00,0.0,WeatherDisplay:10.37,2013-08-08 06:27:00,
2013-08-08 02:32:00,76.4,74.5,29.92,NNE,18,0.0,0.0,94,0.00,SCT,,0.00,0.0,WeatherDisplay:10.37,2013-08-08 06:32:00,
2013-08-08 02:37:00,76.4,74.5,29.92,NNE,17,0.0,0.0,94,0.00,SCT,,0.00,0.0,WeatherDisplay:10.37,2013-08-08 06:37:00,
2013-08-08 02:42:00,76.6,74.7,29.92,NNE,18,0.0,0.0,94,0.00,SCT,,0.00,0.0,WeatherDisplay:10.37,2013-08-08 06:42:00,
2013-08-08 02:47:00,76.6,74.7,29.92,NNE,17,0.0,0.0,94,0.00,SCT,,0.00,0.0,WeatherDisplay:10.37,2013-08-08 06:47:00,
2013-08-08 02:52:00,76.5,74.6,29.92,NNE,17,0.0,0.0,94,0.00,SCT,,0.00,0.0,WeatherDisplay:10.37,2013-08-08 06:52:00,
2013-08-08 02:57:00,76.4,74.5,29.92,NNE,17,0.0,0.0,94,0.00,SCT,,0.00,0.0,WeatherDisplay:10.37,2013-08-08 06:57:00,
2013-08-08 03:02:00,76.4,74.9,29.92,NNE,17,0.0,0.0,95,0.00,SCT,,0.00,0.0,WeatherDisplay:10.37,2013-08-08 07:02:00,
2013-08-08 03:07:00,76.4,74.9,29.92,NNE,17,0.0,0.0,95,0.00,SCT,,0.00,0.0,WeatherDisplay:10.37,2013-08-08 07:07:00,
2013-08-08 03:12:00,76.4,74.9,29.92,NNE,19,0.0,0.0,95,0.00,SCT,,0.00,0.0,WeatherDisplay:10.37,2013-08-08 07:12:00,
2013-08-08 03:17:00,76.3,74.4,29.91,NNE,17,0.0,0.0,94,0.00,SCT,,0.00,0.0,WeatherDisplay:10.37,2013-08-08 07:17:00,
2013-08-08 03:22:00,76.2,74.3,29.91,NNE,19,0.0,0.0,94,0.00,SCT,,0.00,0.0,WeatherDisplay:10.37,2013-08-08 07:22:00,
2013-08-08 03:27:00,76.2,74.7,29.91,NNE,18,0.0,0.0,95,0.00,SCT,,0.00,0.0,WeatherDisplay:10.37,2013-08-08 07:27:00,
2013-08-08 03:32:00,76.1,74.2,29.91,NNE,17,0.0,0.0,94,0.00,SCT,,0.00,0.0,WeatherDisplay:10.37,2013-08-08 07:32:00,
2013-08-08 03:37:00,76.2,74.7,29.91,NNE,18,0.0,0.0,95,0.00,SCT,,0.00,0.0,WeatherDisplay:10.37,2013-08-08 07:37:00,
2013-08-08 03:42:00,76.2,74.7,29.91,NNE,17,0.0,0.0,95,0.00,SCT,,0.00,0.0,WeatherDisplay:10.37,2013-08-08 07:42:00,
2013-08-08 03:47:00,76.3,74.8,29.90,NNE,19,0.0,0.0,95,0.00,SCT,,0.00,0.0,WeatherDisplay:10.37,2013-08-08 07:47:00,
2013-08-08 03:52:00,76.1,74.6,29.90,NNE,18,0.0,0.0,95,0.00,SCT,,0.00,0.0,WeatherDisplay:10.37,2013-08-08 07:52:00,
2013-08-08 03:57:00,76.1,74.6,29.90,NNE,18,0.0,0.0,95,0.00,SCT,,0.00,0.0,WeatherDisplay:10.37,2013-08-08 07:57:00,
2013-08-08 04:04:00,76.1,74.6,29.90,NNE,19,0.0,0.0,95,0.00,FEW,,0.00,0.0,WeatherDisplay:10.37,2013-08-08 08:04:00,
2013-08-08 04:09:00,76.0,74.5,29.90,NNE,18,0.0,0.0,95,0.00,FEW,,0.00,0.0,WeatherDisplay:10.37,2013-08-08 08:09:00,
2013-08-08 04:14:00,75.9,74.4,29.90,NNE,19,0.0,0.0,95,0.00,FEW,,0.00,0.0,WeatherDisplay:10.37,2013-08-08 08:14:00,
2013-08-08 04:19:00,76.0,74.5,29.90,NNE,17,0.0,0.0,95,0.00,FEW,,0.00,0.0,WeatherDisplay:10.37,2013-08-08 08:19:00,
2013-08-08 04:24:00,76.0,74.5,29.90,NNE,18,0.0,0.0,95,0.00,FEW,,0.00,0.0,WeatherDisplay:10.37,2013-08-08 08:24:00,
2013-08-08 04:29:00,76.0,74.5,29.90,NNE,17,0.0,0.0,95,0.00,FEW,,0.00,0.0,WeatherDisplay:10.37,2013-08-08 08:29:00,
2013-08-08 04:36:00,76.1,74.6,29.90,NNE,19,0.0,0.0,95,0.00,FEW,,0.00,0.0,WeatherDisplay:10.37,2013-08-08 08:36:00,
2013-08-08 04:41:00,76.1,74.6,29.90,NNE,18,0.0,0.0,95,0.00,FEW,,0.00,0.0,WeatherDisplay:10.37,2013-08-08 08:41:00,
2013-08-08 04:46:00,76.0,74.5,29.90,NNE,17,0.0,0.0,95,0.00,FEW,,0.00,0.0,WeatherDisplay:10.37,2013-08-08 08:46:00,
2013-08-08 04:51:00,75.8,74.3,29.90,NNE,17,0.0,0.0,95,0.00,FEW,,0.00,0.0,WeatherDisplay:10.37,2013-08-08 08:51:00,
2013-08-08 04:56:00,75.8,74.3,29.90,NNE,17,0.0,0.0,95,0.00,FEW,,0.00,0.0,WeatherDisplay:10.37,2013-08-08 08:56:00,
2013-08-08 05:01:00,75.8,74.3,29.90,NNE,17,0.0,0.0,95,0.00,FEW,,0.00,0.0,WeatherDisplay:10.37,2013-08-08 09:01:00,
2013-08-08 05:06:00,75.8,74.3,29.90,NNE,18,0.0,0.0,95,0.00,FEW,,0.00,0.0,WeatherDisplay:10.37,2013-08-08 09:06:00,
2013-08-08 05:11:00,75.8,74.3,29.90,NNE,19,0.0,0.0,95,0.00,FEW,,0.00,0.0,WeatherDisplay:10.37,2013-08-08 09:11:00,
2013-08-08 05:16:00,75.8,74.3,29.91,NNE,18,0.0,0.0,95,0.00,FEW,,0.00,0.0,WeatherDisplay:10.37,2013-08-08 09:16:00,
2013-08-08 05:21:00,75.7,74.2,29.91,NNE,18,0.0,0.0,95,0.00,FEW,,0.00,0.0,WeatherDisplay:10.37,2013-08-08 09:21:00,
2013-08-08 05:26:00,75.6,74.1,29.91,NNE,17,0.0,0.0,95,0.00,FEW,,0.00,0.0,WeatherDisplay:10.37,2013-08-08 09:26:00,
2013-08-08 05:31:00,75.7,74.2,29.91,NNE,17,0.0,0.0,95,0.00,FEW,,0.00,0.0,WeatherDisplay:10.37,2013-08-08 09:31:00,
2013-08-08 05:36:00,75.8,74.3,29.91,NNE,17,0.0,0.0,95,0.00,FEW,,0.00,0.0,WeatherDisplay:10.37,2013-08-08 09:36:00,
2013-08-08 05:41:00,75.6,74.1,29.91,NNE,17,0.0,0.0,95,0.00,FEW,,0.00,0.0,WeatherDisplay:10.37,2013-08-08 09:41:00,
2013-08-08 05:46:00,75.6,74.1,29.92,NNE,18,0.0,0.0,95,0.00,FEW,,0.00,0.0,WeatherDisplay:10.37,2013-08-08 09:46:00,
2013-08-08 05:52:00,75.7,74.2,29.92,NNE,18,0.0,0.0,95,0.00,FEW,,0.00,0.0,WeatherDisplay:10.37,2013-08-08 09:52:00,
2013-08-08 05:57:00,75.8,74.3,29.92,NNE,19,0.0,0.0,95,0.00,FEW,,0.00,0.0,WeatherDisplay:10.37,2013-08-08 09:57:00,
2013-08-08 06:02:00,75.8,74.3,29.92,NNE,18,0.0,0.0,95,0.00,SCT,,0.00,0.0,WeatherDisplay:10.37,2013-08-08 10:02:00,
2013-08-08 06:07:00,75.7,74.2,29.92,NNE,18,0.0,0.0,95,0.00,SCT,,0.00,0.0,WeatherDisplay:10.37,2013-08-08 10:07:00,
2013-08-08 06:12:00,75.7,74.2,29.92,NNE,19,0.0,0.0,95,0.00,SCT,,0.00,0.0,WeatherDisplay:10.37,2013-08-08 10:12:00,
2013-08-08 06:17:00,75.6,74.1,29.91,NNE,19,0.0,0.0,95,0.00,SCT,,0.00,0.0,WeatherDisplay:10.37,2013-08-08 10:17:00,
2013-08-08 06:22:00,75.7,74.2,29.91,NNE,18,0.0,0.0,95,0.00,SCT,,0.00,0.0,WeatherDisplay:10.37,2013-08-08 10:22:00,
2013-08-08 06:27:00,75.6,74.1,29.91,NNE,19,0.0,0.0,95,0.00,SCT,,0.00,0.0,WeatherDisplay:10.37,2013-08-08 10:27:00,
2013-08-08 06:32:00,75.3,73.8,29.92,NNE,18,0.0,0.0,95,0.00,SCT,,0.00,0.0,WeatherDisplay:10.37,2013-08-08 10:32:00,
2013-08-08 06:37:00,75.3,73.8,29.92,NNE,17,0.0,0.0,95,0.00,SCT,,0.00,0.0,WeatherDisplay:10.37,2013-08-08 10:37:00,
2013-08-08 06:42:00,75.3,73.8,29.92,NNE,17,0.0,0.0,95,0.00,SCT,,0.00,0.0,WeatherDisplay:10.37,2013-08-08 10:42:00,
2013-08-08 06:47:00,75.4,73.9,29.92,NNE,19,0.0,0.0,95,0.00,SCT,,0.00,0.0,WeatherDisplay:10.37,2013-08-08 10:47:00,
2013-08-08 06:52:00,75.6,74.1,29.92,NNE,18,0.0,0.0,95,0.00,SCT,,0.00,0.0,WeatherDisplay:10.37,2013-08-08 10:52:00,
2013-08-08 06:57:00,75.7,74.5,29.92,NNE,17,0.0,0.0,96,0.00,SCT,,0.00,7.0,WeatherDisplay:10.37,2013-08-08 10:57:00,
2013-08-08 07:02:00,75.6,74.1,29.92,NNE,18,0.0,0.0,95,0.00,SCT,,0.00,12.0,WeatherDisplay:10.37,2013-08-08 11:02:00,
2013-08-08 07:07:00,75.6,74.1,29.92,NNE,18,0.0,0.0,95,0.00,SCT,,0.00,18.0,WeatherDisplay:10.37,2013-08-08 11:07:00,
2013-08-08 07:12:00,75.5,74.0,29.92,NNE,19,0.0,0.0,95,0.00,SCT,,0.00,23.0,WeatherDisplay:10.37,2013-08-08 11:12:00,
2013-08-08 07:17:00,75.7,74.5,29.92,NNE,19,0.0,0.0,96,0.00,SCT,,0.00,30.0,WeatherDisplay:10.37,2013-08-08 11:17:00,
2013-08-08 07:22:00,75.9,74.7,29.92,NNE,18,0.0,0.0,96,0.00,SCT,,0.00,37.0,WeatherDisplay:10.37,2013-08-08 11:22:00,
2013-08-08 07:27:00,76.1,74.9,29.92,NNE,19,0.0,0.0,96,0.00,SCT,,0.00,79.0,WeatherDisplay:10.37,2013-08-08 11:27:00,
2013-08-08 07:32:00,76.5,75.3,29.92,NNE,17,0.0,0.0,96,0.00,SCT,,0.00,69.0,WeatherDisplay:10.37,2013-08-08 11:32:00,
2013-08-08 07:37:00,77.1,75.9,29.92,NNE,18,0.0,0.0,96,0.00,SCT,,0.00,102.0,WeatherDisplay:10.37,2013-08-08 11:37:00,
2013-08-08 07:42:00,77.4,76.2,29.92,NNE,19,0.0,0.0,96,0.00,SCT,,0.00,58.0,WeatherDisplay:10.37,2013-08-08 11:42:00,
2013-08-08 07:47:00,77.8,76.6,29.93,NNE,18,1.2,1.2,96,0.00,SCT,,0.00,104.0,WeatherDisplay:10.37,2013-08-08 11:47:00,
2013-08-08 07:52:00,78.1,76.9,29.93,NNE,20,0.0,0.0,96,0.00,SCT,,0.00,142.0,WeatherDisplay:10.37,2013-08-08 11:52:00,
2013-08-08 07:57:00,78.5,77.3,29.93,NNE,17,1.4,1.4,96,0.00,SCT,,0.00,158.0,WeatherDisplay:10.37,2013-08-08 11:57:00,
2013-08-08 08:02:00,78.8,77.6,29.93,NNE,17,4.6,4.6,96,0.00,SCT,,0.00,176.0,WeatherDisplay:10.37,2013-08-08 12:02:00,
2013-08-08 08:07:00,79.2,78.0,29.93,NNE,24,6.9,6.9,96,0.00,SCT,,0.00,192.0,WeatherDisplay:10.37,2013-08-08 12:07:00,
2013-08-08 08:12:00,79.6,78.0,29.93,NNE,30,4.6,4.6,95,0.00,SCT,,0.00,183.0,WeatherDisplay:10.37,2013-08-08 12:12:00,
2013-08-08 08:17:00,79.8,78.2,29.93,NE,36,6.9,6.9,95,0.00,SCT,,0.00,211.0,WeatherDisplay:10.37,2013-08-08 12:17:00,
2013-08-08 08:22:00,80.2,78.3,29.93,NE,40,4.6,4.6,94,0.00,SCT,,0.00,264.0,WeatherDisplay:10.37,2013-08-08 12:22:00,
2013-08-08 08:27:00,80.6,78.4,29.93,NNE,29,6.9,6.9,93,0.00,SCT,,0.00,278.0,WeatherDisplay:10.37,2013-08-08 12:27:00,
2013-08-08 08:32:00,81.2,78.7,29.93,NNE,32,5.8,5.8,92,0.00,SCT,,0.00,302.0,WeatherDisplay:10.37,2013-08-08 12:32:00,
2013-08-08 08:37:00,81.6,78.7,29.93,NNE,31,5.8,5.8,91,0.00,SCT,,0.00,313.0,WeatherDisplay:10.37,2013-08-08 12:37:00,
2013-08-08 08:42:00,82.3,78.7,29.93,NNE,31,9.2,9.2,89,0.00,SCT,,0.00,313.0,WeatherDisplay:10.37,2013-08-08 12:42:00,
2013-08-08 08:47:00,82.7,78.4,29.93,NNE,27,9.2,9.2,87,0.00,SCT,,0.00,350.0,WeatherDisplay:10.37,2013-08-08 12:47:00,
2013-08-08 08:52:00,83.1,78.5,29.93,NNE,32,8.2,8.2,86,0.00,SCT,,0.00,381.0,WeatherDisplay:10.37,2013-08-08 12:52:00,
2013-08-08 08:57:00,83.3,78.7,29.93,NNE,22,12.7,12.7,86,0.00,SCT,,0.00,401.0,WeatherDisplay:10.37,2013-08-08 12:57:00,
2013-08-08 09:02:00,83.9,78.5,29.94,NNE,31,9.2,9.2,84,0.00,SCT,,0.00,415.0,WeatherDisplay:10.37,2013-08-08 13:02:00,
2013-08-08 09:07:00,83.9,78.2,29.94,NNE,32,6.9,7.1,83,0.00,SCT,,0.00,432.0,WeatherDisplay:10.37,2013-08-08 13:07:00,
2013-08-08 09:12:00,84.7,78.6,29.94,NE,34,6.9,6.9,82,0.00,SCT,,0.00,496.0,WeatherDisplay:10.37,2013-08-08 13:12:00,
2013-08-08 09:17:00,85.2,79.1,29.94,NNE,30,8.1,8.1,82,0.00,SCT,,0.00,473.0,WeatherDisplay:10.37,2013-08-08 13:17:00,
2013-08-08 09:22:00,85.0,78.5,29.94,NE,34,8.1,8.1,81,0.00,SCT,,0.00,550.0,WeatherDisplay:10.37,2013-08-08 13:22:00,
2013-08-08 09:27:00,85.3,78.8,29.94,NNE,28,6.9,6.9,81,0.00,SCT,,0.00,599.0,WeatherDisplay:10.37,2013-08-08 13:27:00,
2013-08-08 09:32:00,86.5,79.2,29.94,NNE,26,9.2,9.2,79,0.00,SCT,,0.00,629.0,WeatherDisplay:10.37,2013-08-08 13:32:00,
2013-08-08 09:37:00,86.5,78.4,29.94,NE,36,8.1,8.1,77,0.00,SCT,,0.00,654.0,WeatherDisplay:10.37,2013-08-08 13:37:00,
2013-08-08 09:42:00,87.1,79.0,29.94,NNE,32,9.6,9.6,77,0.00,SCT,,0.00,649.0,WeatherDisplay:10.37,2013-08-08 13:42:00,
2013-08-08 09:47:00,87.5,78.6,29.95,NNE,26,9.2,9.2,75,0.00,SCT,,0.00,670.0,WeatherDisplay:10.37,2013-08-08 13:47:00,
2013-08-08 09:52:00,87.4,77.7,29.95,NNE,33,15.0,15.0,73,0.00,SCT,,0.00,687.0,WeatherDisplay:10.37,2013-08-08 13:52:00,
2013-08-08 09:57:00,87.7,77.5,29.95,NE,36,8.2,9.4,72,0.00,SCT,,0.00,647.0,WeatherDisplay:10.37,2013-08-08 13:57:00,
2013-08-08 10:02:00,87.6,77.0,29.94,NNE,32,11.5,11.5,71,0.00,BKN,,0.00,656.0,WeatherDisplay:10.37,2013-08-08 14:02:00,
2013-08-08 10:07:00,88.0,77.0,29.94,NNE,28,5.8,5.8,70,0.00,BKN,,0.00,668.0,WeatherDisplay:10.37,2013-08-08 14:07:00,
2013-08-08 10:12:00,88.9,78.3,29.94,NE,38,11.0,11.0,71,0.00,BKN,,0.00,679.0,WeatherDisplay:10.37,2013-08-08 14:12:00,
2013-08-08 10:17:00,88.8,77.3,29.95,NNE,32,8.2,8.2,69,0.00,BKN,,0.00,694.0,WeatherDisplay:10.37,2013-08-08 14:17:00,
2013-08-08 10:23:00,89.1,76.7,29.95,NE,34,6.9,6.9,67,0.00,BKN,,0.00,719.0,WeatherDisplay:10.37,2013-08-08 14:23:00,
2013-08-08 10:28:00,89.8,76.5,29.95,NNE,30,11.5,13.0,65,0.00,BKN,,0.00,814.0,WeatherDisplay:10.37,2013-08-08 14:28:00,
2013-08-08 10:33:00,89.7,76.4,29.95,NNE,32,11.5,11.5,65,0.00,BKN,,0.00,220.0,WeatherDisplay:10.37,2013-08-08 14:33:00,
2013-08-08 10:38:00,89.0,76.2,29.95,NE,36,6.9,6.9,66,0.00,BKN,,0.00,772.0,WeatherDisplay:10.37,2013-08-08 14:38:00,
2013-08-08 10:43:00,89.0,76.2,29.95,NE,38,9.2,9.2,66,0.00,BKN,,0.00,149.0,WeatherDisplay:10.37,2013-08-08 14:43:00,
2013-08-08 10:48:00,88.4,76.0,29.95,NE,36,6.9,6.9,67,0.00,BKN,,0.00,221.0,WeatherDisplay:10.37,2013-08-08 14:48:00,
2013-08-08 10:53:00,89.7,77.7,29.95,NE,34,4.6,4.6,68,0.00,BKN,,0.00,849.0,WeatherDisplay:10.37,2013-08-08 14:53:00,
2013-08-08 10:58:00,90.3,76.9,29.95,NE,49,15.0,15.0,65,0.00,BKN,,0.00,895.0,WeatherDisplay:10.37,2013-08-08 14:58:00,
2013-08-08 11:03:00,90.2,76.4,29.95,NE,51,8.1,8.1,64,0.00,SCT,,0.00,902.0,WeatherDisplay:10.37,2013-08-08 15:03:00,
2013-08-08 11:08:00,89.7,75.9,29.95,NE,48,6.9,6.9,64,0.00,SCT,,0.00,898.0,WeatherDisplay:10.37,2013-08-08 15:08:00,
2013-08-08 11:13:00,90.9,77.0,29.95,NE,45,8.1,8.1,64,0.00,SCT,,0.00,896.0,WeatherDisplay:10.37,2013-08-08 15:13:00,
2013-08-08 11:18:00,91.3,76.9,29.95,NE,44,6.9,6.9,63,0.00,SCT,,0.00,800.0,WeatherDisplay:10.37,2013-08-08 15:18:00,
2013-08-08 11:23:00,91.4,77.0,29.95,NE,46,5.8,5.8,63,0.00,SCT,,0.00,244.0,WeatherDisplay:10.37,2013-08-08 15:23:00,
2013-08-08 11:28:00,90.7,76.8,29.95,NE,46,6.9,6.9,64,0.00,SCT,,0.00,176.0,WeatherDisplay:10.37,2013-08-08 15:28:00,
2013-08-08 11:33:00,89.6,76.3,29.95,NE,39,6.9,6.9,65,0.00,SCT,,0.00,232.0,WeatherDisplay:10.37,2013-08-08 15:33:00,
2013-08-08 11:38:00,89.0,76.2,29.95,NE,51,1.2,0.0,66,0.00,SCT,,0.00,69.0,WeatherDisplay:10.37,2013-08-08 15:38:00,
2013-08-08 11:43:00,88.1,75.8,29.95,NE,44,9.2,9.2,67,0.00,SCT,,0.00,86.0,WeatherDisplay:10.37,2013-08-08 15:43:00,
2013-08-08 11:48:00,87.3,76.7,29.96,NNE,33,11.5,11.5,71,0.00,SCT,,0.00,200.0,WeatherDisplay:10.37,2013-08-08 15:48:00,
2013-08-08 11:53:00,87.5,77.8,29.96,NNE,21,9.2,9.2,73,0.00,SCT,,0.00,705.0,WeatherDisplay:10.37,2013-08-08 15:53:00,
2013-08-08 11:58:00,88.9,78.7,29.96,NNE,30,6.9,6.9,72,0.00,SCT,,0.00,441.0,WeatherDisplay:10.37,2013-08-08 15:58:00,
2013-08-08 12:03:00,90.0,80.2,29.96,NNE,18,8.1,8.1,73,0.00,SCT,,0.00,1192.0,WeatherDisplay:10.37,2013-08-08 16:03:00,
2013-08-08 12:08:00,92.6,81.4,29.96,ENE,68,8.1,8.1,70,0.00,SCT,,0.00,1192.0,WeatherDisplay:10.37,2013-08-08 16:08:00,
2013-08-08 12:13:00,90.9,79.3,29.96,NNE,22,5.8,5.8,69,0.00,SCT,,0.00,297.0,WeatherDisplay:10.37,2013-08-08 16:13:00,
2013-08-08 12:18:00,89.2,77.3,29.96,NE,37,6.9,6.9,68,0.00,SCT,,0.00,287.0,WeatherDisplay:10.37,2013-08-08 16:18:00,
2013-08-08 12:23:00,88.1,78.3,29.96,NNE,26,12.7,12.7,73,0.00,SCT,,0.00,294.0,WeatherDisplay:10.37,2013-08-08 16:23:00,
2013-08-08 12:28:00,86.5,78.4,29.96,NNE,28,2.3,2.3,77,0.00,SCT,,0.00,327.0,WeatherDisplay:10.37,2013-08-08 16:28:00,
2013-08-08 12:33:00,85.0,78.1,29.96,NNE,31,5.8,5.8,80,0.00,BKN,,0.00,336.0,WeatherDisplay:10.37,2013-08-08 16:33:00,
2013-08-08 12:38:00,84.6,78.1,29.96,NNE,27,8.1,8.1,81,0.01,RA,,0.01,510.0,WeatherDisplay:10.37,2013-08-08 16:38:00,
2013-08-08 12:43:00,84.6,78.5,29.96,NNE,28,2.7,2.7,82,0.01,RA,,0.01,366.0,WeatherDisplay:10.37,2013-08-08 16:43:00,
2013-08-08 12:48:00,85.2,79.4,29.96,NNE,30,2.3,2.3,83,0.01,BKN,,0.01,1099.0,WeatherDisplay:10.37,2013-08-08 16:48:00,
2013-08-08 12:53:00,86.9,81.1,29.96,NNE,29,5.8,5.8,83,0.01,BKN,,0.01,1151.0,WeatherDisplay:10.37,2013-08-08 16:53:00,
2013-08-08 12:58:00,88.0,79.9,29.96,NNE,22,5.8,5.8,77,0.01,BKN,,0.01,854.0,WeatherDisplay:10.37,2013-08-08 16:58:00,
2013-08-08 13:03:00,88.8,79.8,29.96,NNE,32,6.9,6.9,75,0.01, +RA,,0.01,1100.0,WeatherDisplay:10.37,2013-08-08 17:03:00,
2013-08-08 13:08:00,90.3,80.5,29.96,NE,43,5.5,5.5,73,0.01, +RA,,0.01,1009.0,WeatherDisplay:10.37,2013-08-08 17:08:00,
2013-08-08 13:13:00,91.0,79.4,29.96,NNE,30,11.5,11.5,69,0.01, +RA,,0.01,990.0,WeatherDisplay:10.37,2013-08-08 17:13:00,
2013-08-08 13:18:00,91.1,78.6,29.96,NNE,24,5.8,6.0,67,0.01,-RA,,0.01,942.0,WeatherDisplay:10.37,2013-08-08 17:18:00,
2013-08-08 13:23:00,91.6,79.5,29.96,NNE,25,8.2,8.2,68,0.01,-RA,,0.01,951.0,WeatherDisplay:10.37,2013-08-08 17:23:00,
2013-08-08 13:28:00,92.3,79.3,29.96,NNE,23,9.6,9.6,66,0.01,-RA,,0.01,1046.0,WeatherDisplay:10.37,2013-08-08 17:28:00,
2013-08-08 13:33:00,91.7,77.3,29.96,NNE,26,9.2,9.2,63,0.01,-RA,,0.01,239.0,WeatherDisplay:10.37,2013-08-08 17:33:00,
2013-08-08 13:38:00,89.9,77.0,29.96,NNE,27,5.8,5.8,66,0.00,-RA,,0.01,223.0,WeatherDisplay:10.37,2013-08-08 17:38:00,
2013-08-08 13:43:00,90.2,77.8,29.96,NNE,28,5.8,5.8,67,0.00,-RA,,0.01,956.0,WeatherDisplay:10.37,2013-08-08 17:43:00,
2013-08-08 13:48:00,91.1,78.6,29.95,NNE,26,6.9,8.4,67,0.00,-RA,,0.01,933.0,WeatherDisplay:10.37,2013-08-08 17:48:00,
2013-08-08 13:53:00,91.9,78.0,29.95,NE,38,13.8,13.8,64,0.00,-RA,,0.01,1172.0,WeatherDisplay:10.37,2013-08-08 17:53:00,
2013-08-08 13:58:00,92.6,78.6,29.95,NNE,26,12.7,12.7,64,0.00,-RA,,0.01,512.0,WeatherDisplay:10.37,2013-08-08 17:58:00,
2013-08-08 14:03:00,92.6,77.7,29.95,NNE,25,11.5,11.5,62,0.00,BKN,,0.01,288.0,WeatherDisplay:10.37,2013-08-08 18:03:00,
2013-08-08 14:08:00,91.7,77.8,29.95,NNE,28,4.6,4.6,64,0.00,BKN,,0.01,288.0,WeatherDisplay:10.37,2013-08-08 18:08:00,
2013-08-08 14:13:00,92.3,78.4,29.95,NNE,26,5.8,5.8,64,0.00,BKN,,0.01,255.0,WeatherDisplay:10.37,2013-08-08 18:13:00,
2013-08-08 14:18:00,91.5,77.6,29.94,NE,46,8.1,8.1,64,0.00,-RA,,0.01,125.0,WeatherDisplay:10.37,2013-08-08 18:18:00,
2013-08-08 14:23:00,90.3,76.9,29.94,NE,46,6.9,6.9,65,0.00,-RA,,0.01,174.0,WeatherDisplay:10.37,2013-08-08 18:23:00,
2013-08-08 14:28:00,89.2,77.3,29.94,NE,50,0.0,0.0,68,0.00,-RA,,0.01,176.0,WeatherDisplay:10.37,2013-08-08 18:28:00,
2013-08-08 14:33:00,89.1,78.5,29.95,NE,44,1.2,1.3,71,0.00,-RA,,0.01,193.0,WeatherDisplay:10.37,2013-08-08 18:33:00,
2013-08-08 14:38:00,87.8,76.8,29.95,NE,36,4.1,4.1,70,0.00,-RA,,0.01,260.0,WeatherDisplay:10.37,2013-08-08 18:38:00,
2013-08-08 14:43:00,87.3,77.2,29.95,NE,35,0.0,0.0,72,0.00,-RA,,0.01,288.0,WeatherDisplay:10.37,2013-08-08 18:43:00,
2013-08-08 14:48:00,88.1,78.3,29.93,NE,38,2.3,2.3,73,0.00,-RA,,0.01,299.0,WeatherDisplay:10.37,2013-08-08 18:48:00,
2013-08-08 14:53:00,88.9,78.7,29.93,NE,36,1.4,1.4,72,0.00,-RA,,0.01,306.0,WeatherDisplay:10.37,2013-08-08 18:53:00,
2013-08-08 14:58:00,89.0,78.8,29.93,NNE,20,1.4,1.9,72,0.00,-RA,,0.01,225.0,WeatherDisplay:10.37,2013-08-08 18:58:00,
2013-08-08 15:04:00,88.8,77.3,29.94,NNE,29,2.3,2.3,69,0.00,BKN,,0.01,246.0,WeatherDisplay:10.37,2013-08-08 19:04:00,
2013-08-08 15:09:00,88.8,78.6,29.94,NNE,19,9.2,9.2,72,0.00,BKN,,0.01,265.0,WeatherDisplay:10.37,2013-08-08 19:09:00,
2013-08-08 15:14:00,88.9,77.8,29.94,NNE,24,4.6,4.6,70,0.00,BKN,,0.01,555.0,WeatherDisplay:10.37,2013-08-08 19:14:00,
2013-08-08 15:19:00,89.6,77.6,29.93,NNE,19,5.8,5.8,68,0.00,BKN,,0.01,230.0,WeatherDisplay:10.37,2013-08-08 19:19:00,
2013-08-08 15:24:00,91.4,78.0,29.93,NE,41,11.5,11.5,65,0.00,BKN,,0.01,951.0,WeatherDisplay:10.37,2013-08-08 19:24:00,
2013-08-08 15:29:00,91.5,76.6,29.93,NNE,29,9.2,9.2,62,0.00,BKN,,0.01,373.0,WeatherDisplay:10.37,2013-08-08 19:29:00,
2013-08-08 15:34:00,91.3,76.9,29.93,NNE,27,8.1,8.1,63,0.00,BKN,,0.01,279.0,WeatherDisplay:10.37,2013-08-08 19:34:00,
2013-08-08 15:39:00,91.6,77.2,29.93,NNE,26,13.8,13.8,63,0.00,BKN,,0.01,861.0,WeatherDisplay:10.37,2013-08-08 19:39:00,
2013-08-08 15:44:00,92.5,77.6,29.92,NE,43,6.9,6.9,62,0.00,BKN,,0.01,831.0,WeatherDisplay:10.37,2013-08-08 19:44:00,
2013-08-08 15:49:00,92.2,77.3,29.92,NNE,33,6.9,6.9,62,0.00,BKN,,0.01,141.0,WeatherDisplay:10.37,2013-08-08 19:49:00,
2013-08-08 15:54:00,91.4,77.0,29.92,NNE,31,5.8,5.8,63,0.00,BKN,,0.01,204.0,WeatherDisplay:10.37,2013-08-08 19:54:00,
2013-08-08 16:00:00,91.6,76.8,29.92,NNE,28,5.0,12.0,62,0.00,BKN,,0.01,545.0,WeatherDisplay:10.37,2013-08-08 20:00:00,
2013-08-08 16:05:00,91.8,77.4,29.92,NNE,32,9.2,9.2,63,0.00,-RA,,0.01,882.0,WeatherDisplay:10.37,2013-08-08 20:05:00,
2013-08-08 16:10:00,92.5,78.1,29.92,NNE,24,5.8,5.8,63,0.00,-RA,,0.01,875.0,WeatherDisplay:10.37,2013-08-08 20:10:00,
2013-08-08 16:15:00,93.1,78.6,29.92,NNE,25,12.7,12.7,63,0.00,-RA,,0.01,891.0,WeatherDisplay:10.37,2013-08-08 20:15:00,
2013-08-08 16:20:00,93.3,78.8,29.92,NNE,24,6.9,6.9,63,0.00,-RA,,0.01,237.0,WeatherDisplay:10.37,2013-08-08 20:20:00,
2013-08-08 16:25:00,92.3,77.9,29.92,NNE,29,13.8,13.8,63,0.00,-RA,,0.01,244.0,WeatherDisplay:10.37,2013-08-08 20:25:00,
2013-08-08 16:30:00,91.9,78.0,29.92,NNE,27,9.6,9.6,64,0.00,-RA,,0.01,244.0,WeatherDisplay:10.37,2013-08-08 20:30:00,
2013-08-08 16:35:00,91.5,78.1,29.92,NNE,23,13.8,13.8,65,0.00,-RA,,0.01,696.0,WeatherDisplay:10.37,2013-08-08 20:35:00,
2013-08-08 16:40:00,91.2,77.3,29.92,NNE,26,9.2,9.7,64,0.00,-RA,,0.01,668.0,WeatherDisplay:10.37,2013-08-08 20:40:00,
2013-08-08 16:45:00,91.7,78.3,29.93,NNE,26,5.8,5.8,65,0.00,-RA,,0.01,700.0,WeatherDisplay:10.37,2013-08-08 20:45:00,
2013-08-08 16:50:00,92.6,77.2,29.93,NNE,20,12.7,12.7,61,0.00,-RA,,0.01,367.0,WeatherDisplay:10.37,2013-08-08 20:50:00,
2013-08-08 16:55:00,92.0,77.1,29.93,NNE,30,6.9,6.9,62,0.00,-RA,,0.01,496.0,WeatherDisplay:10.37,2013-08-08 20:55:00,
2013-08-08 17:00:00,92.0,78.1,29.93,NNE,30,21.9,21.9,64,0.00,-RA,,0.01,763.0,WeatherDisplay:10.37,2013-08-08 21:00:00,
2013-08-08 17:05:00,91.7,77.8,29.93,NNE,30,11.5,11.5,64,0.00,BKN,,0.01,705.0,WeatherDisplay:10.37,2013-08-08 21:05:00,
2013-08-08 17:10:00,90.9,77.0,29.93,NNE,25,21.9,21.9,64,0.00,BKN,,0.01,334.0,WeatherDisplay:10.37,2013-08-08 21:10:00,
2013-08-08 17:16:00,90.5,77.6,29.93,NNE,24,13.8,13.8,66,0.00,BKN,,0.01,244.0,WeatherDisplay:10.37,2013-08-08 21:16:00,
2013-08-08 17:21:00,89.9,76.6,29.93,NNE,29,16.5,16.5,65,0.00,BKN,,0.01,229.0,WeatherDisplay:10.37,2013-08-08 21:21:00,
2013-08-08 17:26:00,89.4,76.5,29.93,NNE,29,15.0,15.0,66,0.00,BKN,,0.01,156.0,WeatherDisplay:10.37,2013-08-08 21:26:00,
2013-08-08 17:32:00,88.6,76.2,29.93,NE,34,20.7,20.7,67,0.00,BKN,,0.01,160.0,WeatherDisplay:10.37,2013-08-08 21:32:00,
2013-08-08 17:37:00,88.3,76.8,29.93,NNE,30,6.9,7.9,69,0.00,BKN,,0.01,172.0,WeatherDisplay:10.37,2013-08-08 21:37:00,
2013-08-08 17:43:00,88.4,77.4,29.93,NNE,30,9.2,9.2,70,0.00,BKN,,0.01,359.0,WeatherDisplay:10.37,2013-08-08 21:43:00,
2013-08-08 17:48:00,88.0,76.5,29.92,NNE,28,12.7,12.7,69,0.00,BKN,,0.01,352.0,WeatherDisplay:10.37,2013-08-08 21:48:00,
2013-08-08 17:54:00,87.5,76.5,29.92,NNE,33,13.8,13.8,70,0.00,BKN,,0.01,151.0,WeatherDisplay:10.37,2013-08-08 21:54:00,
2013-08-08 17:59:00,86.6,76.1,29.92,NNE,30,8.1,8.1,71,0.00,BKN,,0.01,149.0,WeatherDisplay:10.37,2013-08-08 21:59:00,
2013-08-08 18:04:00,86.8,76.7,29.92,NE,39,13.7,13.7,72,0.00,BKN,,0.01,130.0,WeatherDisplay:10.37,2013-08-08 22:04:00,
2013-08-08 18:10:00,86.9,76.8,29.92,NNE,28,3.0,12.0,72,0.00,BKN,,0.01,105.0,WeatherDisplay:10.37,2013-08-08 22:10:00,
2013-08-08 18:15:00,87.1,76.5,29.92,NE,42,16.1,16.1,71,0.00,BKN,,0.01,84.0,WeatherDisplay:10.37,2013-08-08 22:15:00,
2013-08-08 18:20:00,86.6,76.1,29.92,NNE,26,18.4,18.4,71,0.00,BKN,,0.01,76.0,WeatherDisplay:10.37,2013-08-08 22:20:00,
2013-08-08 18:25:00,86.4,76.3,29.92,NNE,31,9.2,9.2,72,0.00,BKN,,0.01,77.0,WeatherDisplay:10.37,2013-08-08 22:25:00,
2013-08-08 18:31:00,86.1,76.4,29.92,NE,34,13.8,13.8,73,0.00,BKN,,0.01,91.0,WeatherDisplay:10.37,2013-08-08 22:31:00,
2013-08-08 18:36:00,86.1,76.8,29.92,NNE,28,8.1,8.1,74,0.00,BKN,,0.01,93.0,WeatherDisplay:10.37,2013-08-08 22:36:00,
2013-08-08 18:41:00,86.2,76.9,29.92,NNE,24,9.6,9.6,74,0.00,BKN,,0.01,90.0,WeatherDisplay:10.37,2013-08-08 22:41:00,
2013-08-08 18:46:00,86.0,77.1,29.92,NNE,30,9.2,9.7,75,0.00,BKN,,0.01,84.0,WeatherDisplay:10.37,2013-08-08 22:46:00,
2013-08-08 18:52:00,85.6,77.2,29.92,NE,36,15.0,15.0,76,0.00,BKN,,0.01,72.0,WeatherDisplay:10.37,2013-08-08 22:52:00,
2013-08-08 18:57:00,85.5,77.1,29.92,NE,46,11.5,11.5,76,0.00,BKN,,0.01,62.0,WeatherDisplay:10.37,2013-08-08 22:57:00,
2013-08-08 19:02:00,85.4,77.4,29.92,NE,39,9.2,9.2,77,0.00,BKN,,0.01,56.0,WeatherDisplay:10.37,2013-08-08 23:02:00,
2013-08-08 19:07:00,85.2,77.2,29.92,NE,40,9.2,9.2,77,0.00,BKN,,0.01,53.0,WeatherDisplay:10.37,2013-08-08 23:07:00,
2013-08-08 19:13:00,85.0,77.0,29.92,NNE,33,9.2,9.2,77,0.00,BKN,,0.01,47.0,WeatherDisplay:10.37,2013-08-08 23:13:00,
2013-08-08 19:18:00,84.9,76.9,29.92,NE,38,9.2,9.2,77,0.00,BKN,,0.01,39.0,WeatherDisplay:10.37,2013-08-08 23:18:00,
2013-08-08 19:23:00,84.8,76.8,29.92,NNE,32,12.7,12.7,77,0.00,BKN,,0.01,30.0,WeatherDisplay:10.37,2013-08-08 23:23:00,
2013-08-08 19:28:00,84.6,77.0,29.92,NNE,24,11.5,11.5,78,0.00,BKN,,0.01,21.0,WeatherDisplay:10.37,2013-08-08 23:28:00,
2013-08-08 19:34:00,84.3,76.7,29.92,NNE,25,12.7,12.7,78,0.00,BKN,,0.01,16.0,WeatherDisplay:10.37,2013-08-08 23:34:00,
2013-08-08 19:39:00,84.1,76.5,29.92,NNE,33,2.3,0.0,78,0.00,BKN,,0.01,12.0,WeatherDisplay:10.37,2013-08-08 23:39:00,
2013-08-08 19:44:00,83.9,76.7,29.93,NE,36,9.2,9.2,79,0.00,BKN,,0.01,12.0,WeatherDisplay:10.37,2013-08-08 23:44:00,
2013-08-08 19:49:00,83.6,76.0,29.93,NNE,27,5.8,5.8,78,0.00,BKN,,0.01,11.0,WeatherDisplay:10.37,2013-08-08 23:49:00,
2013-08-08 19:54:00,83.5,76.3,29.93,NNE,26,5.8,5.8,79,0.00,BKN,,0.01,9.0,WeatherDisplay:10.37,2013-08-08 23:54:00,
2013-08-08 20:00:00,83.5,76.3,29.93,NNE,30,0.0,5.0,79,0.00,BKN,,0.01,5.0,WeatherDisplay:10.37,2013-08-09 00:00:00,
2013-08-08 20:05:00,83.4,76.5,29.93,NNE,30,0.0,1.0,80,0.00,BKN,,0.01,0.0,WeatherDisplay:10.37,2013-08-09 00:05:00,
2013-08-08 20:10:00,83.2,76.8,29.93,NNE,30,1.0,6.0,81,0.00,BKN,,0.01,0.0,WeatherDisplay:10.37,2013-08-09 00:10:00,
2013-08-08 20:15:00,83.0,76.9,29.94,NNE,30,1.2,1.2,82,0.00,BKN,,0.01,0.0,WeatherDisplay:10.37,2013-08-09 00:15:00,
2013-08-08 20:21:00,82.8,76.7,29.94,NNE,24,1.2,1.2,82,0.00,BKN,,0.01,0.0,WeatherDisplay:10.37,2013-08-09 00:21:00,
2013-08-08 20:26:00,82.7,76.6,29.94,NNE,17,4.6,4.6,82,0.00,BKN,,0.01,0.0,WeatherDisplay:10.37,2013-08-09 00:26:00,
2013-08-08 20:33:00,82.3,76.6,29.95,NNE,17,1.2,1.2,83,0.00,BKN,,0.01,0.0,WeatherDisplay:10.37,2013-08-09 00:33:00,
2013-08-08 20:38:00,82.1,76.8,29.95,NNE,17,2.3,2.3,84,0.00,BKN,,0.01,0.0,WeatherDisplay:10.37,2013-08-09 00:38:00,
2013-08-08 20:43:00,82.0,76.7,29.95,NNE,19,2.7,2.7,84,0.00,BKN,,0.01,0.0,WeatherDisplay:10.37,2013-08-09 00:43:00,
2013-08-08 20:48:00,81.9,76.6,29.95,NNE,23,5.8,5.8,84,0.00,BKN,,0.01,0.0,WeatherDisplay:10.37,2013-08-09 00:48:00,
2013-08-08 20:53:00,81.8,76.5,29.95,NNE,23,0.0,0.0,84,0.00,BKN,,0.01,0.0,WeatherDisplay:10.37,2013-08-09 00:53:00,
2013-08-08 20:59:00,81.7,76.7,29.96,NNE,23,2.3,2.3,85,0.00,BKN,,0.01,0.0,WeatherDisplay:10.37,2013-08-09 00:59:00,
2013-08-08 21:04:00,81.5,76.6,29.96,NNE,24,1.2,1.2,85,0.00,SCT,,0.01,0.0,WeatherDisplay:10.37,2013-08-09 01:04:00,
2013-08-08 21:09:00,81.3,76.7,29.96,NNE,24,1.2,1.2,86,0.00,SCT,,0.01,0.0,WeatherDisplay:10.37,2013-08-09 01:09:00,
2013-08-08 21:14:00,81.1,76.5,29.96,NNE,25,2.3,2.3,86,0.00,SCT,,0.01,0.0,WeatherDisplay:10.37,2013-08-09 01:14:00,
2013-08-08 21:19:00,81.1,76.5,29.96,NNE,26,2.7,2.9,86,0.00,SCT,,0.01,0.0,WeatherDisplay:10.37,2013-08-09 01:19:00,
2013-08-08 21:25:00,81.0,76.8,29.96,NNE,27,0.0,1.0,87,0.00,SCT,,0.01,0.0,WeatherDisplay:10.37,2013-08-09 01:25:00,
2013-08-08 21:30:00,81.0,76.8,29.98,NNE,26,1.2,1.2,87,0.00,SCT,,0.01,0.0,WeatherDisplay:10.37,2013-08-09 01:30:00,
2013-08-08 21:35:00,81.0,76.8,29.98,NNE,26,0.0,5.0,87,0.00,SCT,,0.01,0.0,WeatherDisplay:10.37,2013-08-09 01:35:00,
2013-08-08 21:40:00,81.0,76.7,29.98,NNE,26,0.0,3.0,87,0.00,SCT,,0.01,0.0,WeatherDisplay:10.37,2013-08-09 01:40:00,
2013-08-08 21:45:00,80.9,76.7,29.98,NNE,24,2.3,2.3,87,0.00,SCT,,0.01,0.0,WeatherDisplay:10.37,2013-08-09 01:45:00,
2013-08-08 21:51:00,80.9,76.7,29.98,NNE,26,5.8,5.8,87,0.00,SCT,,0.01,0.0,WeatherDisplay:10.37,2013-08-09 01:51:00,
2013-08-08 21:57:00,80.9,76.7,29.98,NNE,30,4.6,4.6,87,0.00,SCT,,0.01,0.0,WeatherDisplay:10.37,2013-08-09 01:57:00,
2013-08-08 22:02:00,80.8,76.6,29.99,NNE,28,1.2,0.0,87,0.00,SCT,,0.01,0.0,WeatherDisplay:10.37,2013-08-09 02:02:00,
2013-08-08 22:07:00,80.7,76.5,29.99,NNE,28,1.4,1.4,87,0.00,SCT,,0.01,0.0,WeatherDisplay:10.37,2013-08-09 02:07:00,
2013-08-08 22:12:00,80.7,76.5,29.99,NNE,29,4.6,4.6,87,0.00,SCT,,0.01,0.0,WeatherDisplay:10.37,2013-08-09 02:12:00,
2013-08-08 22:17:00,80.6,76.4,29.99,NNE,28,1.2,0.0,87,0.00,SCT,,0.01,0.0,WeatherDisplay:10.37,2013-08-09 02:17:00,
2013-08-08 22:22:00,80.5,76.6,29.99,NNE,29,5.8,5.8,88,0.00,SCT,,0.01,0.0,WeatherDisplay:10.37,2013-08-09 02:22:00,
2013-08-08 22:28:00,80.4,76.5,29.99,NNE,32,4.6,4.6,88,0.00,SCT,,0.01,0.0,WeatherDisplay:10.37,2013-08-09 02:28:00,
2013-08-08 22:33:00,80.3,76.4,29.99,NNE,30,5.8,5.8,88,0.00,SCT,,0.01,0.0,WeatherDisplay:10.37,2013-08-09 02:33:00,
2013-08-08 22:38:00,80.3,76.4,29.99,NNE,32,5.8,5.8,88,0.00,SCT,,0.01,0.0,WeatherDisplay:10.37,2013-08-09 02:38:00,
2013-08-08 22:43:00,80.2,76.3,29.99,NNE,33,4.6,4.6,88,0.00,SCT,,0.01,0.0,WeatherDisplay:10.37,2013-08-09 02:43:00,
2013-08-08 22:49:00,80.1,76.2,29.99,NNE,32,1.4,1.4,88,0.00,SCT,,0.01,0.0,WeatherDisplay:10.37,2013-08-09 02:49:00,
2013-08-08 22:55:00,80.1,76.2,29.99,NNE,32,1.0,3.0,88,0.00,SCT,,0.01,0.0,WeatherDisplay:10.37,2013-08-09 02:55:00,
2013-08-08 23:00:00,80.1,76.2,29.99,NNE,24,1.0,6.0,88,0.00,SCT,,0.01,0.0,WeatherDisplay:10.37,2013-08-09 03:00:00,
2013-08-08 23:05:00,80.0,76.1,29.99,NNE,22,2.0,5.0,88,0.00,SCT,,0.01,0.0,WeatherDisplay:10.37,2013-08-09 03:05:00,
2013-08-08 23:10:00,80.0,76.1,29.99,NNE,22,2.0,5.0,88,0.00,SCT,,0.01,0.0,WeatherDisplay:10.37,2013-08-09 03:10:00,
2013-08-08 23:15:00,80.0,76.1,30.00,NNE,23,0.0,0.0,88,0.00,SCT,,0.01,0.0,WeatherDisplay:10.37,2013-08-09 03:15:00,
2013-08-08 23:21:00,79.9,76.0,30.00,NNE,23,2.3,2.3,88,0.00,SCT,,0.01,0.0,WeatherDisplay:10.37,2013-08-09 03:21:00,
2013-08-08 23:26:00,79.8,75.9,30.00,NNE,24,1.2,1.2,88,0.00,SCT,,0.01,0.0,WeatherDisplay:10.37,2013-08-09 03:26:00,
2013-08-08 23:31:00,79.7,75.8,30.00,NNE,24,4.6,4.6,88,0.00,SCT,,0.01,0.0,WeatherDisplay:10.37,2013-08-09 03:31:00,
2013-08-08 23:36:00,79.6,75.7,30.00,NNE,26,1.2,0.0,88,0.00,SCT,,0.01,0.0,WeatherDisplay:10.37,2013-08-09 03:36:00,
2013-08-08 23:41:00,79.6,76.1,30.00,NNE,24,0.0,0.0,89,0.00,SCT,,0.01,0.0,WeatherDisplay:10.37,2013-08-09 03:41:00,
2013-08-08 23:46:00,79.6,76.1,30.00,NNE,25,1.2,1.2,89,0.00,SCT,,0.01,0.0,WeatherDisplay:10.37,2013-08-09 03:46:00,
2013-08-08 23:52:00,79.6,76.1,30.00,NNE,24,4.6,0.0,89,0.00,SCT,,0.01,0.0,WeatherDisplay:10.37,2013-08-09 03:52:00,
2013-08-08 23:57:00,79.4,75.9,30.00,NNE,25,0.0,0.0,89,0.00,SCT,,0.01,0.0,WeatherDisplay:10.37,2013-08-09 03:57:00,